Terminal Aerodrome Forecast
Issued by NWS

Home | Current Version | Previous Version | Text Only | Print | Product List | Glossary On
Versions: 1 2 3 4 5 6 7 8 9 10 11 12 13 14 15 16 17 18 19 20
000
FTUS45 KLKN 262001 AAA
TAFEKO
TAF AMD
KEKO 262001Z 2620/2718 30008KT P6SM -SHRA VCTS BKN070CB OVC090
      TEMPO 2620/2622 35015G25KT 4SM -TSRA BR OVC040CB
     FM270000 VRB03KT P6SM VCSH BKN050 BKN080
     FM270500 VRB02KT P6SM FEW060 SCT100 BKN180=

USA.gov is the U.S. government's official web portal to all federal, state and local government web resources and services.